Location: ShareBrained
(45.5589°N, 122.6491°W)
Time: 12:16:16
(UTC-08:00)

NOAA 19 - Pass Details

Date: 22 January 2020
Orbit: 840 x 862 km, 99.2° (Epoch: 24 February)

Event Time Altitude Azimuth Distance (km) Brightness Sun altitude
Rises 06:50:52 0° 9° (N) 3,410 8.2 -9.1°
Reaches altitude 10° 06:53:20 10° 3° (N) 2,469 7.5 -8.7°
Maximum altitude 06:58:29 44° 293° (WNW) 1,152 5.5 -7.8°
Drops below altitude 10° 07:03:36 10° 223° (SW) 2,454 7.4 -7.0°
Sets 07:06:02 0° 217° (SW) 3,386 8.2 -6.6°
